Location: Invercargill
(46.4000°S, 168.3500°E)
Time: 18:54:52
(UTC+12:00)

Cosmos 2315 Rocket - Pass Details

Date: 14 May 2021
Orbit: 965 x 1003 km, 82.9° (Epoch: 14 June)

Event Time Altitude Azimuth Distance (km) Brightness Sun altitude
Rises 20:22:41 0° 190° (S) 3,714 7.2 -30.5°
Reaches altitude 10° 20:25:13 10° 190° (S) 2,764 6.5 -30.9°
Enters shadow 20:30:19 60° 197° (SSW) 1,130 4.3 -31.8°
